| time (UTC) | temp F | wind direction | speed MPH | gust MPH | rain 1hr in | rain 24hr in | rain mn in | humidity % | barometer mb |
| 20260508082553 | 58 | 138 | 4.0 | 2.0 | 0.00 | 0.00 | 0.00 | ||
| 20260508081552 | 58 | 143 | 8.0 | 6.0 | 0.00 | 0.00 | 0.00 | ||
| 20260508080550 | 58 | 128 | 7.0 | 7.0 | 0.00 | 0.00 | 0.00 | ||
| 20260508080050 | 58 | 127 | 9.0 | 8.0 | 0.00 | 0.00 | 0.00 | ||
| 20260508075551 | 58 | 127 | 7.0 | 8.0 | 0.00 | 0.00 | 0.00 | ||
| 20260508075049 | 58 | 139 | 5.0 | 6.0 | 0.00 | 0.00 | 0.00 | ||
| 20260508074549 | 58 | 131 | 5.0 | 5.0 | 0.00 | 0.00 | 0.00 | ||
| 20260508074050 | 58 | 155 | 5.0 | 5.0 | 0.00 | 0.00 | 0.00 | ||
| 20260508073547 | 58 | 155 | 6.0 | 4.0 | 0.00 | 0.00 | 0.00 | ||
| 20260508073048 | 58 | 103 | 7.0 | 5.0 | 0.00 | 0.00 | 0.00 | ||
| 20260508072548 | 58 | 124 | 4.0 | 6.0 | 0.00 | 0.00 | 0.00 | ||
| 20260508072046 | 58 | 131 | 7.0 | 5.0 | 0.00 | 0.00 | 0.00 | ||
| 20260508071546 | 58 | 150 | 6.0 | 5.0 | 0.00 | 0.00 | 0.00 | ||
| 20260508071047 | 58 | 90 | 6.0 | 6.0 | 0.00 | 0.00 | 0.00 | ||
| 20260508070544 | 58 | 83 | 5.0 | 6.0 | 0.00 | 0.00 | 0.00 | ||
| 20260508070045 | 58 | 125 | 4.0 | 5.0 | 0.00 | 0.00 | 0.00 | ||
| 20260508065545 | 59 | 97 | 5.0 | 3.0 | 0.00 | 0.00 | 0.00 | ||
| 20260508065042 | 58 | 82 | 5.0 | 5.0 | 0.00 | 0.00 | 0.00 | ||
| 20260508064542 | 59 | 68 | 6.0 | 7.0 | 0.00 | 0.00 | 0.00 | ||
| 20260508064043 | 59 | 91 | 5.0 | 6.0 | 0.00 | 0.00 | 0.00 | ||
| 20260508063540 | 59 | 72 | 4.0 | 4.0 | 0.00 | 0.00 | 0.00 | ||
| 20260508063041 | 59 | 84 | 6.0 | 4.0 | 0.00 | 0.00 | 0.00 | ||
| 20260508062542 | 59 | 38 | 3.0 | 4.0 | 0.00 | 0.00 | 0.00 | ||
| 20260508062039 | 59 | 352 | 4.0 | 3.0 | 0.00 | 0.00 | 0.00 | ||
| 20260508061540 | 58 | 335 | 4.0 | 4.0 | 0.00 | 0.00 | 0.00 | ||
| 20260508061040 | 59 | 309 | 3.0 | 3.0 | 0.00 | 0.00 | 0.00 | ||
| 20260508060538 | 59 | 311 | 3.0 | 2.0 | 0.00 | 0.00 | 0.00 | ||
| 20260508060038 | 58 | 326 | 4.0 | 3.0 | 0.00 | 0.00 | 0.00 | ||
| 20260508055539 | 58 | 322 | 5.0 | 5.0 | 0.00 | 0.00 | 0.00 | ||
| 20260508055039 | 59 | 63 | 0.0 | 0.0 | 0.00 | 0.00 | 0.00 | ||
| 20260508054538 | 59 | 63 | 0.0 | 0.0 | 0.00 | 0.00 | 0.00 | ||
| 20260508054038 | 59 | 63 | 0.0 | 0.0 | 0.00 | 0.00 | 0.00 | ||
| 20260508053537 | 58 | 63 | 0.0 | 0.0 | 0.00 | 0.00 | 0.00 | ||
| 20260508053035 | 53 | 63 | 0.0 | 0.0 | 0.00 | 0.00 | 0.00 | ||
| 20260508052536 | 58 | 63 | 0.0 | 0.0 | 0.00 | 0.00 | 0.00 | ||
| 20260508052033 | 58 | 63 | 0.0 | 0.0 | 0.00 | 0.00 | 0.00 | ||
| 20260508051534 | 58 | 66 | 3.0 | 2.0 | 0.00 | 0.00 | 0.00 | ||
| 20260508051034 | 59 | 76 | 3.0 | 3.0 | 0.00 | 0.00 | 0.00 | ||
| 20260508050532 | 58 | 80 | 4.0 | 5.0 | 0.00 | 0.00 | 0.00 | ||
| 20260508050032 | 58 | 94 | 4.0 | 4.0 | 0.00 | 0.00 | 0.00 | ||
| 20260508045533 | 58 | 89 | 4.0 | 2.0 | 0.00 | 0.00 | 0.00 | ||
| 20260508045030 | 58 | 94 | 3.0 | 5.0 | 0.00 | 0.00 | 0.00 | ||
| 20260508044531 | 58 | 98 | 4.0 | 5.0 | 0.00 | 0.00 | 0.00 | ||
| 20260508044031 | 59 | 105 | 4.0 | 4.0 | 0.00 | 0.00 | 0.00 | ||
| 20260508043611 | 59 | 114 | 5.0 | 4.0 | 0.00 | 0.00 | 0.00 | ||
| 20260508043529 | 59 | 114 | 5.0 | 4.0 | 0.00 | 0.00 | 0.00 | ||
| 20260508043029 | 57 | 107 | 0.0 | 0.0 | 0.00 | 0.00 | 0.00 | ||
| 20260508042530 | 54 | 107 | 0.0 | 0.0 | 0.00 | 0.00 | 0.00 | ||
| 20260508042059 | 54 | 107 | 0.0 | 0.0 | 0.00 | 0.00 | 0.00 | ||
| 20260508042027 | 54 | 107 | 0.0 | 0.0 | 0.00 | 0.00 | 0.00 | ||
| 20260508041651 | 54 | 107 | 0.0 | 0.0 | 0.00 | 0.00 | 0.00 | ||
| 20260508041528 | 54 | 107 | 0.0 | 0.0 | 0.00 | 0.00 | 0.00 | ||
| 20260508041028 | 56 | 107 | 0.0 | 0.0 | 0.00 | 0.00 | 0.00 | ||
| 20260508040526 | 54 | 107 | 0.0 | 0.0 | 0.00 | 0.00 | 0.00 | ||
| 20260508040026 | 58 | 107 | 0.0 | 0.0 | 0.00 | 0.00 | 0.00 | ||
| 20260508035527 | 58 | 107 | 0.0 | 0.0 | 0.00 | 0.00 | 0.00 | ||
| 20260508035024 | 58 | 107 | 0.0 | 0.0 | 0.00 | 0.00 | 0.00 | ||
| 20260508034525 | 58 | 93 | 0.0 | 3.0 | 0.00 | 0.00 | 0.00 | ||
| 20260508034025 | 58 | 49 | 0.0 | 0.0 | 0.00 | 0.00 | 0.00 | ||
| 20260508033523 | 58 | 49 | 0.0 | 0.0 | 0.00 | 0.00 | 0.00 | ||
| 20260508033023 | 58 | 49 | 0.0 | 0.0 | 0.00 | 0.00 | 0.00 | ||
| 20260508032524 | 58 | 121 | 3.0 | 3.0 | 0.00 | 0.00 | 0.00 | ||
| 20260508032021 | 57 | 87 | 5.0 | 4.0 | 0.00 | 0.00 | 0.00 | ||
| 20260508031522 | 58 | 104 | 4.0 | 4.0 | 0.00 | 0.00 | 0.00 | ||
| 20260508031022 | 58 | 91 | 6.0 | 4.0 | 0.00 | 0.00 | 0.00 | ||
| 20260508030520 | 57 | 83 | 6.0 | 7.0 | 0.00 | 0.00 | 0.00 | ||
| 20260508030021 | 57 | 90 | 6.0 | 5.0 | 0.00 | 0.00 | 0.00 | ||
| 20260508025521 | 58 | 93 | 5.0 | 5.0 | 0.00 | 0.00 | 0.00 | ||
| 20260508025019 | 57 | 75 | 4.0 | 4.0 | 0.00 | 0.00 | 0.00 | ||
| 20260508024519 | 58 | 103 | 5.0 | 5.0 | 0.00 | 0.00 | 0.00 | ||
| 20260508024019 | 58 | 107 | 4.0 | 4.0 | 0.00 | 0.00 | 0.00 | ||
| 20260508023516 | 57 | 120 | 3.0 | 3.0 | 0.00 | 0.00 | 0.00 | ||
| 20260508022517 | 53 | 79 | 5.0 | 3.0 | 0.00 | 0.00 | 0.00 | ||
| 20260508022014 | 52 | 76 | 4.0 | 5.0 | 0.00 | 0.00 | 0.00 | ||
| 20260508021515 | 53 | 104 | 5.0 | 5.0 | 0.00 | 0.00 | 0.00 | ||
| 20260508021015 | 52 | 101 | 4.0 | 6.0 | 0.00 | 0.00 | 0.00 | ||
| 20260508020513 | 53 | 125 | 5.0 | 4.0 | 0.00 | 0.00 | 0.00 | ||
| 20260508020013 | 52 | 103 | 4.0 | 4.0 | 0.00 | 0.00 | 0.00 | ||
| 20260508015514 | 57 | 94 | 6.0 | 5.0 | 0.00 | 0.00 | 0.00 | ||
| 20260508015010 | 52 | 136 | 5.0 | 5.0 | 0.00 | 0.00 | 0.00 | ||
| 20260508014511 | 54 | 136 | 5.0 | 3.0 | 0.00 | 0.00 | 0.00 | ||
| 20260508014012 | 54 | 93 | 4.0 | 5.0 | 0.00 | 0.00 | 0.00 | ||
| 20260508013509 | 53 | 94 | 5.0 | 6.0 | 0.00 | 0.00 | 0.00 | ||
| 20260508013010 | 54 | 114 | 6.0 | 6.0 | 0.00 | 0.00 | 0.00 | ||
| 20260508012510 | 53 | 104 | 7.0 | 7.0 | 0.00 | 0.00 | 0.00 | ||
| 20260508012008 | 54 | 117 | 5.0 | 4.0 | 0.00 | 0.00 | 0.00 | ||
| 20260508011508 | 54 | 101 | 5.0 | 7.0 | 0.00 | 0.00 | 0.00 | ||
| 20260508011009 | 50 | 113 | 6.0 | 7.0 | 0.00 | 0.00 | 0.00 | ||
| 20260508010506 | 51 | 141 | 8.0 | 9.0 | 0.00 | 0.00 | 0.00 | ||
| 20260508010007 | 53 | 114 | 7.0 | 6.0 | 0.00 | 0.00 | 0.00 | ||
| 20260508005507 | 56 | 135 | 4.0 | 6.0 | 0.00 | 0.00 | 0.00 | ||
| 20260508005005 | 58 | 114 | 6.0 | 4.0 | 0.00 | 0.00 | 0.00 | ||
| 20260508004505 | 52 | 93 | 5.0 | 4.0 | 0.00 | 0.00 | 0.00 | ||
| 20260508004006 | 57 | 124 | 6.0 | 3.0 | 0.00 | 0.00 | 0.00 | ||
| 20260508003503 | 56 | 139 | 6.0 | 8.0 | 0.00 | 0.00 | 0.00 | ||
| 20260508003005 | 58 | 107 | 6.0 | 7.0 | 0.00 | 0.00 | 0.00 | ||
| 20260508002505 | 58 | 135 | 6.0 | 7.0 | 0.00 | 0.00 | 0.00 | ||
| 20260508002002 | 58 | 115 | 7.0 | 7.0 | 0.00 | 0.00 | 0.00 | ||
| 20260508001503 | 53 | 89 | 5.0 | 6.0 | 0.00 | 0.00 | 0.00 | ||
| 20260508001003 | 54 | 122 | 5.0 | 5.0 | 0.00 | 0.00 | 0.00 | ||
| 20260508000501 | 57 | 113 | 6.0 | 7.0 | 0.00 | 0.00 | 0.00 | ||
| 20260508000001 | 53 | 100 | 7.0 | 6.0 | 0.00 | 0.00 | 0.00 | ||
| 20260507235502 | 53 | 105 | 5.0 | 3.0 | 0.00 | 0.00 | 0.00 | ||
| 20260507235000 | 54 | 122 | 7.0 | 7.0 | 0.00 | 0.00 | 0.00 | ||
| 20260507234500 | 58 | 138 | 6.0 | 5.0 | 0.00 | 0.00 | 0.00 | ||
| 20260507234001 | 58 | 135 | 8.0 | 6.0 | 0.00 | 0.00 | 0.00 | ||
| 20260507233458 | 54 | 101 | 7.0 | 8.0 | 0.00 | 0.00 | 0.00 | ||
| 20260507232959 | 54 | 142 | 5.0 | 4.0 | 0.00 | 0.00 | 0.00 | ||
| 20260507232459 | 54 | 143 | 5.0 | 6.0 | 0.00 | 0.00 | 0.00 | ||
| 20260507231957 | 56 | 105 | 5.0 | 4.0 | 0.00 | 0.00 | 0.00 | ||
| 20260507231458 | 55 | 132 | 6.0 | 6.0 | 0.00 | 0.00 | 0.00 | ||
| 20260507230958 | 56 | 124 | 6.0 | 7.0 | 0.00 | 0.00 | 0.00 | ||
| 20260507230456 | 55 | 103 | 6.0 | 4.0 | 0.00 | 0.00 | 0.00 | ||
| 20260507225956 | 59 | 114 | 8.0 | 7.0 | 0.00 | 0.00 | 0.00 | ||
| 20260507225457 | 54 | 108 | 7.0 | 7.0 | 0.00 | 0.00 | 0.00 | ||
| 20260507224455 | 54 | 107 | 7.0 | 5.0 | 0.00 | 0.00 | 0.00 | ||
| 20260507223956 | 58 | 77 | 8.0 | 9.0 | 0.00 | 0.00 | 0.00 | ||
| 20260507223453 | 59 | 70 | 9.0 | 7.0 | 0.00 | 0.00 | 0.00 | ||
| 20260507222954 | 59 | 87 | 8.0 | 9.0 | 0.00 | 0.00 | 0.00 | ||
| 20260507222455 | 60 | 98 | 7.0 | 11.0 | 0.00 | 0.00 | 0.00 | ||
| 20260507221952 | 60 | 132 | 9.0 | 9.0 | 0.00 | 0.00 | 0.00 | ||
| 20260507221453 | 60 | 104 | 9.0 | 7.0 | 0.00 | 0.00 | 0.00 | ||
| 20260507220953 | 60 | 101 | 9.0 | 8.0 | 0.00 | 0.00 | 0.00 | ||
| 20260507220451 | 60 | 113 | 9.0 | 9.0 | 0.00 | 0.00 | 0.00 | ||
| 20260507215951 | 60 | 115 | 8.0 | 9.0 | 0.00 | 0.00 | 0.00 | ||
| 20260507215452 | 61 | 93 | 9.0 | 9.0 | 0.00 | 0.00 | 0.00 | ||
| 20260507214949 | 61 | 100 | 10.0 | 9.0 | 0.00 | 0.00 | 0.00 | ||
| 20260507214450 | 61 | 91 | 10.0 | 12.0 | 0.00 | 0.00 | 0.00 | ||
| 20260507213950 | 60 | 90 | 8.0 | 9.0 | 0.00 | 0.00 | 0.00 | ||
| 20260507213448 | 61 | 117 | 12.0 | 11.0 | 0.00 | 0.00 | 0.00 | ||
| 20260507212948 | 61 | 87 | 11.0 | 9.0 | 0.00 | 0.00 | 0.00 | ||
| 20260507212449 | 61 | 96 | 10.0 | 13.0 | 0.00 | 0.00 | 0.00 | ||
| 20260507211946 | 60 | 86 | 13.0 | 14.0 | 0.00 | 0.00 | 0.00 | ||
| 20260507211447 | 61 | 107 | 13.0 | 14.0 | 0.00 | 0.00 | 0.00 | ||
| 20260507210948 | 60 | 105 | 11.0 | 10.0 | 0.00 | 0.00 | 0.00 | ||
| 20260507210445 | 61 | 83 | 9.0 | 10.0 | 0.00 | 0.00 | 0.00 | ||
| 20260507205946 | 61 | 84 | 9.0 | 8.0 | 0.00 | 0.00 | 0.00 | ||
| 20260507205446 | 61 | 75 | 8.0 | 7.0 | 0.00 | 0.00 | 0.00 | ||
| 20260507204944 | 61 | 87 | 7.0 | 8.0 | 0.00 | 0.00 | 0.00 | ||
| 20260507204444 | 61 | 76 | 8.0 | 11.0 | 0.00 | 0.00 | 0.00 | ||
| 20260507203945 | 60 | 93 | 9.0 | 10.0 | 0.00 | 0.00 | 0.00 | ||
| 20260507203442 | 61 | 117 | 9.0 | 9.0 | 0.00 | 0.00 | 0.00 | ||
| 20260507202943 | 62 | 87 | 9.0 | 9.0 | 0.00 | 0.00 | 0.00 | ||
| 20260507202443 | 62 | 100 | 11.0 | 10.0 | 0.00 | 0.00 | 0.00 | ||
| 20260507201941 | 63 | 121 | 11.0 | 16.0 | 0.00 | 0.00 | 0.00 | ||
| 20260507201442 | 64 | 75 | 10.0 | 10.0 | 0.00 | 0.00 | 0.00 | ||
| 20260507200942 | 64 | 77 | 11.0 | 11.0 | 0.00 | 0.00 | 0.00 | ||
| 20260507200440 | 64 | 90 | 7.0 | 6.0 | 0.00 | 0.00 | 0.00 | ||
| 20260507195940 | 64 | 66 | 10.0 | 12.0 | 0.00 | 0.00 | 0.00 | ||
| 20260507195441 | 64 | 60 | 9.0 | 7.0 | 0.00 | 0.00 | 0.00 | ||
| 20260507194938 | 63 | 52 | 7.0 | 9.0 | 0.00 | 0.00 | 0.00 | ||
| 20260507194439 | 64 | 96 | 9.0 | 9.0 | 0.00 | 0.00 | 0.00 | ||
| 20260507193939 | 64 | 63 | 10.0 | 8.0 | 0.00 | 0.00 | 0.00 | ||
| 20260507193437 | 63 | 75 | 11.0 | 8.0 | 0.00 | 0.00 | 0.00 | ||
| 20260507192937 | 64 | 104 | 8.0 | 7.0 | 0.00 | 0.00 | 0.00 | ||
| 20260507192438 | 64 | 76 | 7.0 | 8.0 | 0.00 | 0.00 | 0.00 | ||
| 20260507191935 | 64 | 70 | 10.0 | 8.0 | 0.00 | 0.00 | 0.00 | ||
| 20260507191436 | 65 | 41 | 10.0 | 8.0 | 0.00 | 0.00 | 0.00 | ||
| 20260507190936 | 65 | 87 | 9.0 | 9.0 | 0.00 | 0.00 | 0.00 | ||
| 20260507190434 | 64 | 66 | 7.0 | 8.0 | 0.00 | 0.00 | 0.00 | ||
| 20260507185934 | 64 | 135 | 11.0 | 13.0 | 0.00 | 0.00 | 0.00 | ||
| 20260507185435 | 64 | 128 | 9.0 | 8.0 | 0.00 | 0.00 | 0.00 | ||
| 20260507184933 | 65 | 73 | 10.0 | 11.0 | 0.00 | 0.00 | 0.00 | ||
| 20260507184433 | 64 | 59 | 10.0 | 7.0 | 0.00 | 0.00 | 0.00 | ||
| 20260507183934 | 64 | 42 | 10.0 | 10.0 | 0.00 | 0.00 | 0.00 | ||
| 20260507183431 | 64 | 38 | 9.0 | 11.0 | 0.00 | 0.00 | 0.00 | ||
| 20260507182932 | 64 | 39 | 9.0 | 12.0 | 0.00 | 0.00 | 0.00 | ||
| 20260507182432 | 64 | 56 | 12.0 | 9.0 | 0.00 | 0.00 | 0.00 | ||
| 20260507181929 | 64 | 48 | 9.0 | 11.0 | 0.00 | 0.00 | 0.00 | ||
| 20260507181430 | 64 | 100 | 9.0 | 10.0 | 0.00 | 0.00 | 0.00 | ||
| 20260507180930 | 64 | 82 | 14.0 | 11.0 | 0.00 | 0.00 | 0.00 | ||
| 20260507180428 | 64 | 62 | 13.0 | 8.0 | 0.00 | 0.00 | 0.00 | ||
| 20260507175928 | 63 | 55 | 12.0 | 9.0 | 0.00 | 0.00 | 0.00 | ||
| 20260507175429 | 63 | 21 | 11.0 | 10.0 | 0.00 | 0.00 | 0.00 | ||
| 20260507174926 | 64 | 25 | 10.0 | 10.0 | 0.00 | 0.00 | 0.00 | ||
| 20260507174427 | 64 | 23 | 12.0 | 11.0 | 0.00 | 0.00 | 0.00 | ||
| 20260507173927 | 64 | 49 | 11.0 | 14.0 | 0.00 | 0.00 | 0.00 | ||
| 20260507173425 | 65 | 35 | 9.0 | 12.0 | 0.00 | 0.00 | 0.00 | ||
| 20260507172925 | 64 | 58 | 13.0 | 11.0 | 0.00 | 0.00 | 0.00 | ||
| 20260507172426 | 65 | 28 | 10.0 | 16.0 | 0.00 | 0.00 | 0.00 | ||
| 20260507171923 | 64 | 55 | 10.0 | 9.0 | 0.00 | 0.00 | 0.00 | ||
| 20260507171424 | 63 | 30 | 9.0 | 12.0 | 0.00 | 0.00 | 0.00 | ||
| 20260507170924 | 62 | 1 | 8.0 | 14.0 | 0.00 | 0.00 | 0.00 | ||
| 20260507170422 | 64 | 23 | 11.0 | 10.0 | 0.00 | 0.00 | 0.00 | ||
| 20260507165922 | 63 | 8 | 9.0 | 13.0 | 0.00 | 0.00 | 0.00 | ||
| 20260507165423 | 62 | 32 | 7.0 | 9.0 | 0.00 | 0.00 | 0.00 | ||
| 20260507164920 | 61 | 37 | 11.0 | 10.0 | 0.00 | 0.00 | 0.00 | ||
| 20260507164421 | 61 | 55 | 8.0 | 11.0 | 0.00 | 0.00 | 0.00 | ||
| 20260507164017 | 61 | 11 | 10.0 | 8.0 | 0.00 | 0.00 | 0.00 | ||
| 20260507163921 | 61 | 11 | 10.0 | 8.0 | 0.00 | 0.00 | 0.00 | ||
| 20260507163419 | 60 | 32 | 11.0 | 11.0 | 0.00 | 0.00 | 0.00 | ||
| 20260507162919 | 61 | 45 | 8.0 | 10.0 | 0.00 | 0.00 | 0.00 | ||
| 20260507162420 | 61 | 359 | 8.0 | 8.0 | 0.00 | 0.00 | 0.00 | ||
| 20260507161917 | 60 | 58 | 10.0 | 8.0 | 0.00 | 0.00 | 0.00 | ||
| 20260507161418 | 60 | 41 | 10.0 | 10.0 | 0.00 | 0.00 | 0.00 | ||
| 20260507160919 | 59 | 18 | 8.0 | 11.0 | 0.00 | 0.00 | 0.00 | ||
| 20260507160416 | 58 | 8 | 12.0 | 9.0 | 0.00 | 0.00 | 0.00 | ||
| 20260507155917 | 58 | 7 | 10.0 | 10.0 | 0.00 | 0.00 | 0.00 | ||
| 20260507155417 | 58 | 13 | 10.0 | 11.0 | 0.00 | 0.00 | 0.00 | ||
| 20260507154915 | 57 | 3 | 10.0 | 11.0 | 0.00 | 0.00 | 0.00 | ||
| 20260507154415 | 58 | 32 | 13.0 | 10.0 | 0.00 | 0.00 | 0.00 | ||
| 20260507153916 | 58 | 31 | 10.0 | 13.0 | 0.00 | 0.00 | 0.00 | ||
| 20260507153414 | 57 | 15 | 9.0 | 11.0 | 0.00 | 0.00 | 0.00 | ||
| 20260507152914 | 57 | 20 | 10.0 | 12.0 | 0.00 | 0.00 | 0.00 | ||
| 20260507152415 | 57 | 354 | 10.0 | 14.0 | 0.00 | 0.00 | 0.00 | ||
| 20260507151912 | 57 | 14 | 13.0 | 14.0 | 0.00 | 0.00 | 0.00 | ||
| 20260507151413 | 56 | 4 | 11.0 | 10.0 | 0.00 | 0.00 | 0.00 | ||
| 20260507150913 | 55 | 8 | 12.0 | 14.0 | 0.00 | 0.00 | 0.00 | ||
| 20260507150411 | 55 | 13 | 11.0 | 10.0 | 0.00 | 0.00 | 0.00 | ||
| 20260507145911 | 55 | 3 | 11.0 | 9.0 | 0.00 | 0.00 | 0.00 | ||
| 20260507145412 | 55 | 7 | 10.0 | 10.0 | 0.00 | 0.00 | 0.00 | ||
| 20260507144910 | 55 | 6 | 11.0 | 9.0 | 0.00 | 0.00 | 0.00 | ||
| 20260507144410 | 56 | 346 | 10.0 | 13.0 | 0.00 | 0.00 | 0.00 | ||
| 20260507143911 | 55 | 28 | 11.0 | 11.0 | 0.00 | 0.00 | 0.00 | ||
| 20260507143409 | 55 | 17 | 9.0 | 14.0 | 0.00 | 0.00 | 0.00 | ||
| 20260507142909 | 55 | 51 | 9.0 | 6.0 | 0.00 | 0.00 | 0.00 | ||
| 20260507142410 | 55 | 20 | 10.0 | 8.0 | 0.00 | 0.00 | 0.00 | ||
| 20260507141908 | 55 | 6 | 11.0 | 11.0 | 0.00 | 0.00 | 0.00 | ||
| 20260507141408 | 54 | 41 | 9.0 | 10.0 | 0.00 | 0.00 | 0.00 | ||
| 20260507140909 | 54 | 23 | 9.0 | 9.0 | 0.00 | 0.00 | 0.00 | ||
| 20260507140407 | 54 | 14 | 11.0 | 12.0 | 0.00 | 0.00 | 0.00 | ||
| 20260507135907 | 54 | 13 | 11.0 | 11.0 | 0.00 | 0.00 | 0.00 | ||
| 20260507135408 | 54 | 25 | 10.0 | 9.0 | 0.00 | 0.00 | 0.00 | ||
| 20260507134906 | 54 | 354 | 11.0 | 10.0 | 0.00 | 0.00 | 0.00 | ||
| 20260507134406 | 54 | 21 | 10.0 | 11.0 | 0.00 | 0.00 | 0.00 | ||
| 20260507133907 | 54 | 28 | 10.0 | 12.0 | 0.00 | 0.00 | 0.00 | ||
| 20260507133405 | 54 | 34 | 9.0 | 9.0 | 0.00 | 0.00 | 0.00 | ||
| 20260507132905 | 54 | 8 | 12.0 | 14.0 | 0.00 | 0.00 | 0.00 | ||
| 20260507132406 | 54 | 31 | 12.0 | 12.0 | 0.00 | 0.00 | 0.00 | ||
| 20260507131905 | 55 | 3 | 11.0 | 8.0 | 0.00 | 0.00 | 0.00 | ||
| 20260507131404 | 54 | 1 | 10.0 | 10.0 | 0.00 | 0.00 | 0.00 | ||
| 20260507130905 | 53 | 23 | 10.0 | 10.0 | 0.00 | 0.00 | 0.00 | ||
| 20260507130402 | 54 | 17 | 11.0 | 13.0 | 0.00 | 0.00 | 0.00 | ||
| 20260507125903 | 54 | 349 | 10.0 | 11.0 | 0.00 | 0.00 | 0.00 | ||
| 20260507125403 | 55 | 18 | 9.0 | 8.0 | 0.00 | 0.00 | 0.00 | ||
| 20260507124901 | 54 | 13 | 9.0 | 8.0 | 0.00 | 0.00 | 0.00 | ||
| 20260507124402 | 54 | 23 | 11.0 | 15.0 | 0.00 | 0.00 | 0.00 | ||
| 20260507123902 | 53 | 17 | 9.0 | 10.0 | 0.00 | 0.00 | 0.00 | ||
| 20260507123400 | 53 | 1 | 11.0 | 10.0 | 0.00 | 0.00 | 0.00 | ||
| 20260507122900 | 53 | 25 | 8.0 | 10.0 | 0.00 | 0.00 | 0.00 | ||
| 20260507122401 | 53 | 24 | 8.0 | 8.0 | 0.00 | 0.00 | 0.00 | ||
| 20260507121859 | 53 | 349 | 8.0 | 14.0 | 0.00 | 0.00 | 0.00 | ||
| 20260507121400 | 53 | 342 | 9.0 | 9.0 | 0.00 | 0.00 | 0.00 | ||
| 20260507120900 | 53 | 7 | 9.0 | 10.0 | 0.00 | 0.00 | 0.00 | ||
| 20260507120357 | 53 | 32 | 8.0 | 6.0 | 0.00 | 0.00 | 0.00 | ||
| 20260507115858 | 53 | 359 | 12.0 | 8.0 | 0.00 | 0.00 | 0.00 | ||
| 20260507115358 | 54 | 7 | 13.0 | 9.0 | 0.00 | 0.00 | 0.00 | ||
| 20260507114856 | 53 | 4 | 12.0 | 10.0 | 0.00 | 0.00 | 0.00 | ||
| 20260507114356 | 54 | 25 | 10.0 | 9.0 | 0.00 | 0.00 | 0.00 | ||
| 20260507113857 | 54 | 10 | 11.0 | 11.0 | 0.00 | 0.00 | 0.00 | ||
| 20260507113354 | 54 | 353 | 10.0 | 10.0 | 0.00 | 0.00 | 0.00 | ||
| 20260507112855 | 54 | 13 | 9.0 | 7.0 | 0.00 | 0.00 | 0.00 | ||
| 20260507112355 | 54 | 357 | 9.0 | 9.0 | 0.00 | 0.00 | 0.00 | ||
| 20260507111853 | 54 | 4 | 9.0 | 11.0 | 0.00 | 0.00 | 0.00 | ||
| 20260507111424 | 55 | 13 | 11.0 | 9.0 | 0.00 | 0.00 | 0.00 | ||
| 20260507111353 | 55 | 13 | 11.0 | 9.0 | 0.00 | 0.00 | 0.00 | ||
| 20260507110926 | 55 | 8 | 12.0 | 11.0 | 0.00 | 0.00 | 0.00 | ||
| 20260507110854 | 55 | 8 | 12.0 | 11.0 | 0.00 | 0.00 | 0.00 | ||
| 20260507105852 | 55 | 4 | 9.0 | 8.0 | 0.00 | 0.00 | 0.00 | ||
| 20260507105352 | 55 | 359 | 11.0 | 10.0 | 0.00 | 0.00 | 0.00 | ||
| 20260507104850 | 56 | 353 | 10.0 | 9.0 | 0.00 | 0.00 | 0.00 | ||
| 20260507104350 | 55 | 35 | 10.0 | 9.0 | 0.00 | 0.00 | 0.00 | ||
| 20260507103850 | 55 | 18 | 14.0 | 13.0 | 0.00 | 0.00 | 0.00 | ||
| 20260507103348 | 55 | 0 | 9.0 | 14.0 | 0.00 | 0.00 | 0.00 | ||
| 20260507102848 | 55 | 18 | 13.0 | 12.0 | 0.00 | 0.00 | 0.00 | ||
| 20260507102348 | 55 | 13 | 11.0 | 9.0 | 0.00 | 0.00 | 0.00 | ||
| 20260507101846 | 56 | 1 | 10.0 | 10.0 | 0.00 | 0.00 | 0.00 | ||
| 20260507100847 | 55 | 0 | 13.0 | 12.0 | 0.00 | 0.00 | 0.00 | ||
| 20260507100344 | 56 | 18 | 8.0 | 7.0 | 0.00 | 0.00 | 0.00 | ||
| 20260507095844 | 56 | 349 | 11.0 | 9.0 | 0.00 | 0.00 | 0.00 | ||
| 20260507095345 | 56 | 13 | 8.0 | 8.0 | 0.00 | 0.00 | 0.00 | ||
| 20260507094842 | 56 | 14 | 10.0 | 7.0 | 0.00 | 0.00 | 0.00 | ||
| 20260507094343 | 56 | 357 | 10.0 | 11.0 | 0.00 | 0.00 | 0.00 | ||
| 20260507093843 | 56 | 1 | 9.0 | 9.0 | 0.00 | 0.00 | 0.00 | ||
| 20260507093340 | 56 | 3 | 10.0 | 9.0 | 0.00 | 0.00 | 0.00 | ||
| 20260507092841 | 56 | 21 | 9.0 | 10.0 | 0.00 | 0.00 | 0.00 | ||
| 20260507092341 | 56 | 31 | 9.0 | 8.0 | 0.00 | 0.00 | 0.00 | ||
| 20260507091839 | 56 | 21 | 9.0 | 11.0 | 0.00 | 0.00 | 0.00 | ||
| 20260507091339 | 56 | 7 | 12.0 | 13.0 | 0.00 | 0.00 | 0.00 | ||
| 20260507090839 | 56 | 14 | 9.0 | 10.0 | 0.00 | 0.00 | 0.00 | ||
| 20260507090337 | 56 | 30 | 10.0 | 9.0 | 0.00 | 0.00 | 0.00 | ||
| 20260507085837 | 56 | 352 | 10.0 | 9.0 | 0.00 | 0.00 | 0.00 | ||
| 20260507085338 | 56 | 25 | 9.0 | 12.0 | 0.00 | 0.00 | 0.00 | ||
| 20260507084835 | 56 | 6 | 10.0 | 9.0 | 0.00 | 0.00 | 0.00 | ||
| 20260507084335 | 56 | 6 | 9.0 | 9.0 | 0.00 | 0.00 | 0.00 | ||
| 20260507083835 | 56 | 3 | 10.0 | 10.0 | 0.00 | 0.00 | 0.00 | ||
| 20260507083333 | 56 | 3 | 11.0 | 12.0 | 0.00 | 0.00 | 0.00 | ||
| 20260507082833 | 57 | 11 | 8.0 | 8.0 | 0.00 | 0.00 | 0.00 |